Location: Burleson Alternative School
(32.5290°N, 97.3406°W)
Time: 03:13:25
(UTC+00:00)

Courier 1B Rocket - Pass Details

Date: 13 November 2024
Orbit: 920 x 1201 km, 28.2° (Epoch: 03 December)

Event Time Altitude Azimuth Distance (km) Brightness Sun altitude
Rises 02:40:10 0° 271° (W) 3,573 8.8 -40.2°
Reaches altitude 10° 02:42:59 10° 263° (W) 2,612 7.9 -40.8°
Enters shadow 02:45:33 23° 246° (WSW) 1,857 6.8 -41.3°
